Wind_Speed
18 14 10 7 7 11 12 5 8 4 3 2 4 4 2 1 3 1 1 7 9 10 6 3 5 9 14 16 18 18 16 14 13 14 16 16 15 14 14 15 15 14 11 9 10 11 11 12 12
21 17 12 9 18 21 13 7 2 5 1 3 2 3 3 1 4 7 9 9 10 9 6 2 5 9 13 16 18 18 17 15 14 16 16 15 14 12 13 13 13 12 9 10 12 13 15 16 16
23 18 11 15 18 23 9 6 8 4 3 2 1 3 1 3 9 7 8 10 10 6 4 1 4 9 13 15 18 18 17 17 17 17 16 14 13 12 12 12 12 11 10 12 15 15 17 18 17
21 17 16 18 21 15 12 5 5 6 5 3 2 2 3 2 5 7 9 9 9 7 3 2 5 9 14 16 17 18 18 18 18 17 15 13 12 11 11 11 12 12 13 15 16 16 16 16 17
19 15 20 21 20 18 11 9 10 7 6 4 2 1 6 8 9 10 10 9 9 6 5 4 6 9 14 17 18 18 18 18 19 17 14 13 11 12 10 12 14 14 15 16 16 16 15 15 15
18 18 22 24 23 16 15 13 10 10 9 5 3 4 6 10 9 9 4 6 6 7 5 6 8 10 14 17 18 19 19 19 19 16 14 12 11 12 11 12 15 14 15 16 15 14 14 14 14
20 18 23 22 19 16 16 14 15 11 9 11 6 2 7 18 10 9 6 8 5 7 5 5 8 11 15 16 18 20 20 20 20 16 14 12 11 12 11 12 14 14 15 14 13 13 13 13 12
19 20 24 22 21 18 11 14 14 14 11 10 8 2 2 12 14 10 8 10 7 8 6 8 10 11 14 16 19 20 21 21 20 17 15 13 12 12 11 12 14 14 14 12 11 11 12 11 12
16 23 25 20 20 16 12 15 13 13 13 10 10 7 14 16 16 6 5 9 11 12 15 12 13 13 15 18 20 22 22 22 21 18 17 15 14 13 12 10 12 14 13 12 10 10 10 11 11
18 20 20 13 12 11 12 13 12 15 11 12 9 10 17 19 17 6 9 10 15 15 16 13 15 15 17 19 20 22 23 22 21 19 18 17 15 14 13 12 11 12 12 12 12 10 11 9 9
16 22 13 15 14 13 13 14 12 14 11 13 12 11 20 23 22 12 12 14 16 18 19 17 17 17 18 20 21 24 25 25 23 22 21 19 16 16 13 11 12 12 12 11 12 12 10 10 5
19 15 19 17 13 13 14 13 15 13 14 15 17 15 13 21 14 18 10 17 19 20 21 20 20 20 20 19 22 25 26 26 24 23 23 22 20 18 16 14 14 15 13 11 14 11 10 11 15
18 16 13 13 13 10 10 11 11 10 12 17 17 15 15 17 14 17 13 19 24 21 20 19 20 21 23 24 21 27 26 24 20 23 25 24 21 20 19 17 11 12 11 12 12 13 21 14 14
5 12 12 11 11 11 10 8 9 7 8 10 9 8 13 11 14 14 11 15 22 22 22 20 22 23 23 24 24 24 24 22 22 21 23 25 22 23 22 20 20 15 14 16 14 18 18 12 10
14 12 12 14 12 12 10 13 12 10 5 3 2 7 9 8 11 13 13 14 20 20 21 22 23 24 26 27 27 25 22 24 23 23 26 23 23 23 22 21 22 18 20 17 19 22 20 16 17
11 12 15 14 10 12 12 9 7 4 3 4 4 3 5 15 10 13 18 12 16 21 22 18 20 25 24 28 28 26 27 26 25 26 26 25 25 26 23 25 23 20 20 19 22 28 18 18 17
9 17 10 9 6 9 14 11 2 2 3 4 3 6 6 13 22 17 18 14 14 20 22 22 20 24 27 28 31 29 28 29 27 26 26 29 27 27 26 27 26 27 23 23 24 23 20 19 19
12 8 7 9 5 6 11 8 1 1 3 4 4 5 16 23 20 21 18 21 18 17 18 18 22 26 30 29 31 32 32 31 32 29 30 31 27 29 29 29 30 31 28 26 26 25 22 20 24
1 4 6 6 6 6 6 5 5 4 4 4 5 6 9 10 13 14 16 17 18 18 21 19 18 23 30 31 32 35 36 34 32 33 33 34 33 33 34 32 33 34 28 30 32 31 31 28 23
7 11 13 6 10 8 9 11 7 7 8 7 5 3 6 7 8 10 13 16 18 19 20 20 16 18 28 31 29 33 36 38 35 33 34 37 38 36 35 34 34 38 32 36 36 33 34 31 33
11 11 16 11 6 11 14 16 15 11 8 6 3 4 5 5 5 5 5 6 8 15 19 24 19 18 22 28 31 34 38 40 40 39 40 41 41 40 38 38 36 43 36 39 38 38 37 37 38
12 12 11 13 16 21 21 21 26 17 10 6 6 4 2 5 6 5 6 7 5 3 12 20 23 23 25 29 36 39 41 42 40 40 39 44 45 41 40 41 41 43 44 41 46 42 41 41 43
13 12 13 14 17 19 22 16 18 18 14 7 4 3 2 9 6 5 5 5 9 9 4 8 23 26 30 32 33 43 42 47 44 41 37 38 41 45 46 46 47 48 49 48 48 49 45 44 43
11 11 12 14 16 18 21 23 20 23 21 12 6 2 2 4 16 10 12 11 9 8 12 11 11 15 28 35 33 33 31 30 34 35 30 35 42 46 49 52 54 56 54 54 52 52 50 46 46
9 12 19 15 16 15 6 12 3 11 12 11 7 3 2 3 15 20 18 18 18 15 15 17 19 20 19 25 31 37 32 31 40 42 39 39 44 47 49 54 55 59 59 57 55 56 56 52 51
9 10 16 17 13 1 9 11 6 11 9 7 5 2 3 9 19 21 18 15 13 13 13 12 13 19 26 28 29 32 32 36 37 42 39 33 40 41 43 57 61 66 61 59 58 56 57 57 57
5 11 8 12 21 18 26 4 10 13 9 7 6 3 5 14 17 15 16 15 16 17 19 20 20 18 19 23 30 34 35 38 38 38 38 45 44 44 41 43 49 65 62 59 57 64 62 66 62
11 11 10 15 11 17 18 21 5 16 12 9 6 5 5 8 12 15 14 16 17 17 18 20 23 25 26 25 25 31 35 36 35 35 39 37 42 44 43 48 44 50 58 59 58 62 60 67 74
12 10 13 14 16 12 12 6 9 9 11 12 9 7 5 8 13 16 17 16 17 18 20 22 24 26 29 32 29 28 32 36 35 30 31 27 33 27 32 40 51 43 49 55 51 49 61 67 55
14 17 15 17 16 14 17 20 2 9 8 8 8 9 8 11 13 17 18 17 17 19 22 25 25 27 30 32 32 31 29 32 32 30 27 26 25 27 29 25 35 44 45 47 49 53 54 59 61
Wind_Direction
245 252 265 288 264 243 236 237 250 295 217 86 106 119 199 180 297 271 1 341 350 355 1 76 131 149 153 154 153 147 146 145 142 136 134 132 128 129 131 130 130 124 122 122 126 116 116 119 123
239 244 253 244 252 267 241 192 283 245 227 126 117 61 12 295 272 258 286 298 307 341 350 10 138 153 155 157 154 152 152 151 149 145 142 139 137 136 136 137 130 122 122 125 129 120 117 114 112
231 233 234 249 246 254 283 190 214 242 226 141 129 96 334 285 291 295 295 286 290 316 329 301 154 159 157 159 156 156 157 156 154 150 148 145 146 143 140 141 146 135 128 129 131 126 119 113 107
223 222 235 240 243 241 255 220 202 211 225 221 268 318 322 264 337 325 317 285 264 286 278 235 166 164 159 160 158 158 160 161 157 154 151 150 151 148 146 147 148 143 136 136 137 131 123 118 115
205 211 233 238 244 249 234 240 226 227 232 247 240 318 278 319 320 324 318 267 249 235 225 209 177 168 162 162 161 162 164 163 161 160 158 159 160 154 145 143 146 144 142 144 140 135 131 126 120
205 211 233 237 241 243 238 235 244 238 229 219 284 287 242 313 329 330 314 222 212 221 216 207 185 175 168 166 164 166 168 168 166 167 164 166 168 159 153 150 151 152 153 150 149 144 139 135 129
208 221 234 245 253 240 238 243 235 241 249 251 240 249 269 290 316 335 297 255 227 237 238 226 206 188 172 172 169 171 172 171 172 175 172 175 173 164 163 161 159 162 160 158 158 156 149 140 135
215 225 244 245 251 252 242 238 235 237 240 208 232 94 128 263 319 318 302 259 282 253 270 230 221 204 178 180 175 175 177 176 178 181 181 182 179 172 172 170 172 176 166 161 165 168 163 154 143
217 230 241 243 247 245 242 241 246 239 228 256 241 247 242 269 311 291 218 223 222 250 259 246 217 204 188 185 184 181 183 184 184 186 188 185 189 186 184 171 177 181 178 178 176 172 171 170 174
215 228 232 239 250 238 238 242 239 237 248 238 239 254 272 280 288 222 213 217 202 204 203 238 219 208 196 192 192 189 190 191 192 191 193 190 196 200 202 185 185 182 181 183 182 174 157 154 161
226 231 233 248 244 244 242 236 243 243 263 234 252 251 277 284 281 274 216 219 217 202 194 198 217 216 204 203 201 198 197 197 196 197 196 198 205 209 215 207 202 198 190 193 188 183 160 99 146
234 242 244 243 256 258 249 244 240 250 255 254 248 251 249 270 245 253 245 210 213 202 195 195 212 217 197 204 208 206 206 204 203 205 202 204 209 216 214 226 221 212 206 213 204 193 167 201 184
234 241 250 255 241 247 242 238 241 237 235 232 249 239 247 251 243 248 252 199 198 199 204 208 227 225 206 206 217 210 210 214 213 214 208 212 213 220 219 217 200 225 231 214 214 197 227 212 190
244 246 242 241 241 239 237 238 231 237 281 269 272 227 236 225 244 234 233 215 190 197 211 217 224 237 220 228 221 215 212 219 209 221 222 217 218 223 224 225 223 210 207 223 215 222 223 203 211
237 251 245 237 239 233 240 234 238 238 297 262 197 207 206 203 214 238 246 205 209 210 215 223 229 239 221 226 227 217 217 208 216 219 232 222 225 232 230 230 230 218 215 204 224 231 230 208 211
237 245 248 220 224 231 218 203 182 238 230 283 142 184 193 251 172 238 255 220 232 213 215 224 233 236 230 229 233 228 216 222 224 219 232 235 233 235 230 235 235 224 224 220 220 231 232 237 231
230 238 218 195 221 218 213 195 151 178 187 185 157 149 151 210 245 234 252 251 232 230 226 237 242 240 240 230 230 227 230 233 223 227 225 238 232 236 236 234 237 234 225 224 223 238 236 238 229
191 225 222 251 189 225 215 193 181 148 182 171 161 158 225 265 263 257 259 258 255 247 243 248 252 244 244 237 234 231 227 233 231 230 235 241 235 237 237 236 235 239 233 232 234 233 240 229 245
57 279 290 220 256 235 229 200 228 174 168 147 131 229 273 259 254 249 247 250 259 250 248 253 257 248 237 238 237 234 229 226 231 228 235 242 245 237 238 235 239 240 238 236 242 244 244 247 237
268 269 265 236 252 243 214 209 202 175 156 146 140 251 283 281 274 269 268 259 255 256 240 240 246 247 239 241 240 233 234 239 236 238 239 240 244 245 244 243 240 246 239 241 243 244 250 249 249
266 275 273 279 238 258 252 216 193 177 152 142 166 259 256 271 284 287 293 295 269 244 241 234 237 242 239 237 235 232 232 234 239 241 243 244 244 245 245 247 243 250 249 249 248 251 250 255 254
294 284 271 262 266 262 229 257 183 179 170 142 121 114 262 248 251 258 261 269 277 321 268 238 232 239 239 237 237 235 234 236 238 245 247 249 251 249 251 249 249 248 252 249 255 253 255 253 255
283 281 274 265 260 260 245 241 207 183 182 174 138 103 294 259 261 258 260 250 248 261 262 259 242 237 232 237 241 238 241 233 237 243 247 246 253 254 249 249 250 249 249 251 250 254 253 255 252
269 286 273 258 250 245 244 245 217 198 196 175 164 136 68 343 272 282 300 302 295 271 263 278 283 260 242 240 243 250 259 248 252 254 239 264 274 273 260 254 251 250 250 251 251 252 251 250 252
265 273 262 224 219 235 207 192 102 146 163 175 170 169 334 3 292 287 302 304 306 304 289 277 279 286 286 263 250 249 247 247 242 253 258 258 257 256 265 260 265 258 256 256 256 257 255 252 250
256 273 286 305 296 92 172 233 160 168 163 165 168 176 298 297 295 299 303 308 314 318 320 310 292 281 276 280 284 267 269 262 257 253 253 256 250 254 255 248 248 251 254 253 255 257 257 254 252
229 251 273 289 276 270 279 132 155 178 177 203 221 250 284 292 291 296 303 311 318 321 321 321 319 310 293 281 279 280 278 270 268 264 261 258 260 256 256 250 252 258 247 253 255 256 254 255 255
233 272 261 231 263 269 263 261 189 180 193 206 229 253 276 293 298 300 303 307 310 313 314 316 315 314 310 302 285 278 279 278 275 277 280 273 264 259 255 254 259 264 237 271 264 261 260 262 256
228 247 245 273 280 297 290 297 91 174 201 207 227 245 260 280 288 293 296 299 301 306 310 310 308 305 303 303 298 290 280 276 276 278 276 277 277 271 268 260 255 253 248 263 269 257 255 247 257
259 255 260 257 264 244 270 279 211 186 204 222 227 253 253 279 291 294 296 296 299 306 310 306 304 301 299 297 296 294 287 277 276 275 272 268 263 260 260 259 250 244 245 247 250 252 252 249 256
Height
3182 3183 3185 3187 3192 3182 3174 3175 3176 3177 3179 3178 3180 3181 3182 3182 3183 3185 3181 3181 3180 3178 3178 3178 3178 3178 3179 3180 3181 3183 3186 3188 3189 3191 3193 3195 3197 3198 3200 3201 3202 3203 3204 3205 3206 3207 3207 3207 3208
3179 3182 3185 3187 3188 3175 3170 3173 3178 3178 3178 3179 3180 3180 3182 3183 3181 3181 3182 3181 3180 3179 3179 3179 3179 3179 3180 3181 3182 3184 3186 3188 3191 3193 3195 3196 3198 3201 3202 3203 3204 3205 3206 3207 3208 3209 3209 3210 3210
3176 3180 3186 3185 3181 3174 3170 3173 3176 3179 3180 3179 3181 3180 3183 3183 3180 3180 3180 3180 3180 3180 3179 3179 3179 3180 3180 3182 3183 3184 3186 3189 3191 3193 3196 3198 3200 3202 3204 3205 3207 3208 3209 3209 3210 3211 3212 3212 3213
3174 3179 3182 3179 3174 3172 3171 3173 3176 3179 3180 3179 3180 3182 3181 3179 3179 3179 3179 3178 3178 3178 3179 3180 3180 3181 3181 3183 3184 3185 3187 3190 3193 3195 3197 3200 3202 3204 3205 3207 3208 3209 3210 3211 3212 3213 3214 3215 3215
3172 3178 3177 3174 3172 3170 3170 3173 3177 3178 3178 3180 3179 3181 3180 3178 3179 3178 3177 3177 3177 3177 3178 3179 3180 3181 3182 3183 3185 3186 3189 3191 3194 3196 3198 3201 3203 3205 3206 3208 3209 3211 3212 3213 3215 3216 3216 3217 3218
3170 3173 3172 3169 3167 3168 3169 3173 3175 3176 3178 3179 3178 3179 3178 3177 3177 3177 3176 3177 3177 3177 3178 3179 3180 3181 3182 3184 3185 3187 3189 3192 3195 3198 3199 3202 3204 3206 3207 3209 3211 3213 3214 3215 3216 3218 3219 3220 3220
3166 3169 3167 3166 3163 3164 3167 3170 3173 3174 3176 3176 3177 3179 3176 3175 3175 3175 3176 3177 3177 3177 3178 3179 3180 3181 3181 3184 3186 3188 3190 3193 3195 3198 3200 3202 3205 3207 3209 3211 3212 3214 3216 3217 3219 3220 3221 3222 3223
3165 3167 3165 3164 3163 3163 3165 3168 3170 3173 3176 3172 3175 3179 3177 3171 3173 3173 3173 3176 3177 3177 3177 3179 3181 3182 3181 3184 3185 3188 3191 3193 3195 3198 3200 3203 3206 3208 3210 3211 3214 3216 3217 3219 3220 3221 3222 3223 3224
3163 3164 3160 3161 3161 3162 3164 3166 3168 3170 3172 3172 3174 3174 3172 3169 3171 3170 3173 3174 3176 3176 3176 3178 3180 3181 3181 3183 3186 3188 3190 3192 3195 3198 3201 3203 3206 3208 3210 3212 3214 3217 3218 3220 3221 3222 3223 3224 3225
3158 3159 3158 3159 3158 3160 3163 3164 3166 3168 3170 3171 3172 3173 3170 3168 3169 3172 3174 3176 3177 3176 3177 3176 3179 3180 3182 3183 3185 3187 3190 3193 3195 3198 3201 3203 3206 3207 3209 3212 3214 3217 3218 3220 3221 3223 3224 3225 3226
3156 3155 3157 3158 3158 3159 3160 3162 3164 3165 3166 3168 3170 3172 3165 3167 3166 3168 3172 3175 3175 3175 3177 3177 3177 3179 3181 3183 3185 3187 3190 3192 3194 3197 3200 3202 3205 3207 3209 3212 3214 3216 3218 3220 3221 3223 3225 3227 3229
3153 3154 3155 3155 3156 3156 3156 3159 3160 3162 3164 3165 3166 3168 3166 3162 3164 3162 3166 3172 3174 3174 3175 3176 3175 3177 3181 3183 3184 3187 3189 3191 3193 3196 3199 3201 3203 3206 3208 3211 3213 3215 3217 3218 3221 3223 3225 3221 3224
3151 3152 3152 3152 3153 3153 3154 3155 3157 3159 3157 3155 3157 3159 3161 3161 3161 3159 3160 3162 3169 3171 3172 3173 3174 3175 3178 3181 3182 3185 3188 3190 3194 3194 3197 3199 3202 3204 3207 3210 3214 3216 3218 3220 3220 3224 3223 3224 3226
3149 3149 3150 3150 3151 3151 3151 3153 3154 3155 3152 3153 3155 3157 3160 3160 3159 3158 3158 3159 3163 3167 3168 3170 3171 3172 3176 3178 3180 3183 3186 3191 3194 3195 3195 3198 3200 3202 3205 3207 3210 3215 3218 3220 3221 3221 3220 3224 3226
3146 3147 3146 3146 3148 3149 3149 3151 3152 3149 3152 3151 3153 3154 3155 3156 3159 3157 3156 3159 3161 3162 3164 3166 3168 3168 3172 3174 3177 3180 3185 3189 3191 3194 3193 3195 3198 3200 3203 3205 3206 3210 3213 3217 3218 3216 3216 3220 3223
3144 3144 3142 3141 3144 3146 3147 3146 3145 3148 3150 3149 3150 3151 3152 3148 3154 3153 3152 3155 3156 3158 3160 3163 3165 3165 3169 3171 3174 3176 3180 3182 3186 3188 3190 3190 3195 3196 3200 3202 3204 3207 3209 3211 3214 3212 3213 3214 3217
3140 3136 3138 3139 3142 3143 3144 3143 3144 3146 3147 3147 3148 3149 3150 3143 3144 3146 3148 3150 3153 3155 3156 3159 3161 3163 3163 3167 3168 3171 3175 3177 3180 3183 3185 3184 3189 3193 3196 3198 3200 3201 3205 3206 3209 3208 3210 3212 3214
3131 3133 3135 3137 3139 3141 3141 3142 3143 3144 3145 3144 3142 3142 3139 3139 3141 3142 3144 3146 3148 3151 3153 3154 3156 3157 3158 3161 3164 3166 3168 3171 3174 3177 3179 3180 3183 3187 3190 3193 3195 3196 3198 3200 3202 3205 3207 3210 3208
3135 3136 3134 3136 3139 3139 3138 3138 3142 3142 3143 3141 3139 3136 3135 3136 3137 3138 3139 3140 3143 3145 3147 3149 3150 3152 3152 3154 3157 3160 3162 3164 3167 3169 3172 3175 3177 3180 3182 3187 3190 3191 3195 3197 3197 3199 3201 3204 3205
3137 3136 3134 3134 3138 3139 3136 3138 3141 3140 3138 3138 3137 3133 3132 3133 3133 3134 3134 3136 3138 3140 3141 3143 3144 3146 3147 3149 3152 3154 3157 3160 3161 3163 3165 3167 3170 3174 3178 3182 3185 3185 3189 3190 3192 3195 3196 3199 3199
3135 3134 3133 3133 3133 3135 3134 3133 3135 3137 3135 3133 3132 3131 3131 3131 3131 3131 3132 3132 3133 3134 3135 3137 3140 3142 3143 3144 3145 3146 3148 3151 3153 3156 3158 3159 3163 3166 3170 3173 3179 3178 3183 3184 3186 3189 3191 3192 3193
3135 3133 3132 3133 3133 3129 3124 3123 3124 3130 3134 3134 3131 3131 3129 3129 3129 3129 3129 3130 3130 3131 3131 3131 3133 3136 3137 3138 3138 3137 3139 3140 3145 3148 3152 3152 3154 3159 3162 3165 3168 3171 3172 3177 3176 3181 3184 3186 3185
3134 3132 3131 3130 3129 3128 3123 3125 3121 3125 3130 3132 3132 3130 3127 3126 3126 3126 3126 3126 3127 3128 3128 3129 3129 3130 3129 3129 3131 3127 3129 3130 3133 3136 3138 3142 3148 3151 3153 3155 3157 3160 3163 3166 3168 3169 3174 3176 3180
3131 3130 3128 3126 3124 3120 3117 3116 3111 3117 3121 3125 3129 3129 3127 3124 3121 3123 3122 3122 3123 3124 3124 3124 3125 3125 3125 3124 3123 3115 3107 3106 3120 3123 3124 3131 3139 3140 3144 3145 3145 3146 3150 3154 3158 3159 3162 3167 3168
3129 3127 3119 3113 3108 3103 3105 3110 3114 3118 3121 3123 3125 3126 3124 3122 3116 3118 3118 3117 3117 3117 3118 3119 3119 3118 3119 3119 3117 3115 3114 3113 3117 3119 3119 3118 3122 3128 3129 3132 3136 3139 3141 3144 3147 3150 3152 3156 3157
3126 3126 3120 3109 3100 3099 3108 3109 3109 3115 3116 3119 3121 3122 3120 3117 3114 3114 3113 3112 3112 3112 3111 3112 3112 3112 3112 3111 3110 3110 3108 3109 3110 3110 3108 3110 3113 3114 3115 3117 3118 3124 3127 3131 3134 3136 3139 3143 3145
3124 3123 3121 3117 3112 3107 3102 3107 3108 3108 3113 3117 3120 3119 3117 3113 3111 3110 3108 3107 3107 3106 3105 3105 3105 3105 3106 3105 3104 3102 3100 3100 3099 3100 3100 3101 3101 3102 3104 3104 3107 3109 3109 3114 3117 3120 3124 3128 3130
3121 3121 3119 3115 3109 3102 3096 3095 3093 3103 3110 3114 3117 3117 3113 3111 3109 3106 3106 3105 3104 3103 3103 3101 3100 3098 3097 3097 3097 3096 3094 3092 3091 3091 3090 3089 3090 3091 3091 3092 3092 3093 3093 3097 3099 3103 3106 3108 3110
3117 3116 3116 3115 3110 3102 3099 3097 3101 3103 3108 3110 3112 3112 3110 3108 3107 3105 3103 3102 3101 3101 3099 3098 3096 3094 3092 3090 3089 3088 3087 3085 3083 3082 3082 3082 3082 3080 3081 3080 3082 3083 3085 3087 3089 3089 3092 3093 3094
3113 3112 3111 3109 3106 3104 3105 3101 3101 3103 3105 3106 3108 3107 3106 3105 3104 3102 3100 3099 3097 3097 3095 3093 3091 3089 3086 3084 3082 3080 3079 3077 3076 3074 3073 3072 3071 3072 3072 3070 3069 3069 3069 3072 3074 3077 3079 3081 3082